Regional Weather Roundup
Issued by NWS Goodland, KS

Home | Current Version | Previous Version | Graphics & Text | Print | Product List | Glossary On
Versions: 1 2 3 4 5 6 7 8 9 10 11 12 13 14 15 16 17 18 19 20 21 22 23 24 25 26 27 28 29 30 31 32 33 34 35 36 37 38 39 40 41 42 43 44 45 46 47 48 49 50
779
ASUS43 KGLD 190659
RWRGLD

GOODLAND FORECAST AREA HOURLY WEATHER ROUNDUP
NATIONAL WEATHER SERVICE GOODLAND KS
1200 AM MST SUN FEB 19 2017

...OFFICIAL OBSERVATIONS...

CITY           SKY/WX    TMP DP  RH WIND       PRES   REMARKS
GOODLAND KS    CLOUDY    48  32  53 S15       29.72F
HILL CITY KS   MOCLDY    51  43  74 S7        29.79R
IMPERIAL NEB   CLOUDY    48  31  51 S13       29.71F
MCCOOK NEB     MOCLDY    50  36  58 S5        29.74R
AKRON CO       CLOUDY    51  24  34 S16       29.67F
BURLINGTON CO  CLOUDY    50  31  48 S24       29.71F
LIMON CO       CLOUDY    38  23  55 MISG      29.73S
$$

...UNOFFICIAL OBSERVATIONS...

CITY           SKY/WX    TMP DP  RH WIND       PRES   REMARKS
LENORA KS        N/A     52  32  46 S10         N/A
NORTON KS      CLEAR     50  36  57 S8        29.76
SHARON SPRINGS   N/A     49  36  60 S21         N/A
TRENTON NEB      N/A     45  32  60 S7          N/A
KIT CARSON CO    N/A     47  29  50 MISG        N/A
YUMA CO        FAIR      46  28  49 S9        29.69S
$$




USA.gov is the U.S. government's official web portal to all federal, state and local government web resources and services.